FW6883 Weather Reports


Display with metric or nautical units.
time (UTC)temp
F
wind
direction
speed
MPH
gust
MPH
rain 1hr
in
rain 24hr
in
rain mn
in
humidity
%
barometer
mb
20260831080118 61 99 0.0 1.0 0.00 0.00 0.00 42 1004.2
20260831074603 62 99 0.0 1.0 0.00 0.00 0.00 41 1004.4
20260831073053 61 102 0.0 0.0 0.00 0.00 0.00 41 1004.3
20260831071557 61 103 0.0 0.0 0.00 0.00 0.00 39 1004.6
20260831070042 61 109 0.0 1.0 0.00 0.00 0.00 40 1004.5
20260831064539 62 109 0.0 0.0 0.00 0.00 0.00 38 1004.5
20260831063036 62 109 0.0 0.0 0.00 0.00 0.00 37 1004.2
20260831061535 62 109 0.0 2.0 0.00 0.00 0.00 38 1004.2
20260831060034 63 109 1.0 3.0 0.00 0.00 0.00 37 1004.4
20260831054532 63 110 2.0 6.0 0.00 0.00 0.00 40 1004.4
20260831053032 63 93 2.0 5.0 0.00 0.00 0.00 39 1004.2
20260831051527 63 110 3.0 6.0 0.00 0.00 0.00 39 1004.2
20260831050025 63 120 0.0 3.0 0.00 0.00 0.00 40 1004.2
20260831044524 63 111 1.0 3.0 0.00 0.00 0.00 42 1004.3
20260831043028 63 114 0.0 3.0 0.00 0.00 0.00 41 1004.1
20260831041520 63 142 1.0 2.0 0.00 0.00 0.00 44 1003.8
20260831040120 63 148 1.0 3.0 0.00 0.00 0.00 45 1003.7
20260831034516 62 141 0.0 2.0 0.00 0.00 0.00 46 1003.6
20260831033018 63 161 1.0 2.0 0.00 0.00 0.00 53 1003.6
20260831031515 62 169 1.0 3.0 0.00 0.00 0.00 52 1003.4
20260831030011 62 154 1.0 3.0 0.00 0.00 0.00 58 1003.0
20260831024519 62 100 1.0 4.0 0.00 0.00 0.00 45 1003.1
20260831023007 62 114 0.0 4.0 0.00 0.00 0.00 54 1003.0
20260831021505 63 94 3.0 7.0 0.00 0.00 0.00 52 1003.0
20260831020003 65 94 4.0 9.0 0.00 0.00 0.00 48 1002.8
20260831014502 67 111 5.0 9.0 0.00 0.00 0.00 46 1002.8
20260831013100 68 105 3.0 11.0 0.00 0.00 0.00 46 1002.9
20260831011558 68 83 6.0 11.0 0.00 0.00 0.00 45 1003.0
20260831010109 69 111 4.0 9.0 0.00 0.00 0.00 45 1003.0
20260831004553 69 84 6.0 14.0 0.00 0.00 0.00 46 1003.2
20260831003103 70 94 6.0 14.0 0.00 0.00 0.00 45 1003.1
20260831001550 71 84 6.0 14.0 0.00 0.00 0.00 45 1003.3
20260831000050 72 90 3.0 11.0 0.00 0.00 0.00 42 1003.3
20260830234552 72 79 5.0 12.0 0.00 0.00 0.00 40 1003.2
20260830233044 72 101 5.0 12.0 0.00 0.00 0.00 39 1003.3
20260830231545 73 57 4.0 12.0 0.00 0.00 0.00 38 1003.4
20260830230046 72 98 5.0 15.0 0.00 0.00 0.00 38 1003.4
20260830224545 72 75 6.0 11.0 0.00 0.00 0.00 38 1003.5
20260830223136 72 70 6.0 14.0 0.00 0.00 0.00 40 1003.7
20260830221538 72 79 4.0 12.0 0.00 0.00 0.00 41 1003.9
20260830220134 72 92 5.0 13.0 0.00 0.00 0.00 40 1003.9
20260830214529 73 48 7.0 15.0 0.00 0.00 0.00 40 1004.1
20260830213028 73 77 3.0 12.0 0.00 0.00 0.00 42 1004.4
20260830211525 74 71 5.0 13.0 0.00 0.00 0.00 41 1004.5
20260830210022 73 80 9.0 17.0 0.00 0.00 0.00 41 1004.6
20260830204519 72 63 1.0 12.0 0.00 0.00 0.00 43 1004.7
20260830203024 73 75 5.0 11.0 0.00 0.00 0.00 41 1005.0
20260830201517 73 98 8.0 17.0 0.00 0.00 0.00 38 1004.9
20260830200013 72 108 5.0 13.0 0.00 0.00 0.00 37 1004.9
20260830194512 74 80 5.0 10.0 0.00 0.00 0.00 34 1005.2
20260830193010 73 58 6.0 12.0 0.00 0.00 0.00 34 1005.1
20260830191507 73 79 6.0 9.0 0.00 0.00 0.00 35 1005.2
20260830190005 72 85 4.0 10.0 0.00 0.00 0.00 34 1005.2
20260830184503 73 101 5.0 10.0 0.00 0.00 0.00 33 1005.4
20260830183116 73 63 2.0 9.0 0.00 0.00 0.00 34 1005.3
20260830181558 72 79 2.0 9.0 0.00 0.00 0.00 35 1005.5
20260830180100 72 99 3.0 10.0 0.00 0.00 0.00 35 1005.4
20260830174556 72 115 4.0 9.0 0.00 0.00 0.00 36 1005.3
20260830173104 71 110 3.0 8.0 0.00 0.00 0.00 36 1005.2
20260830171549 71 75 2.0 11.0 0.00 0.00 0.00 36 1005.0
20260830170051 71 73 5.0 9.0 0.00 0.00 0.00 34 1005.0
20260830164548 71 84 2.0 7.0 0.00 0.00 0.00 33 1005.0
20260830163049 71 113 3.0 8.0 0.00 0.00 0.00 33 1004.9
20260830161545 71 117 0.0 4.0 0.00 0.00 0.00 33 1004.8
20260830160032 70 62 0.0 3.0 0.00 0.00 0.00 31 1004.8
20260830154531 70 82 0.0 4.0 0.00 0.00 0.00 32 1004.8
20260830153042 70 96 0.0 4.0 0.00 0.00 0.00 32 1004.7
20260830151523 70 86 0.0 2.0 0.00 0.00 0.00 32 1004.6
20260830150018 69 116 0.0 3.0 0.00 0.00 0.00 32 1004.6
20260830144517 68 110 0.0 3.0 0.00 0.00 0.00 32 1004.3
20260830143013 66 136 1.0 3.0 0.00 0.00 0.00 33 1004.4
20260830141516 67 147 0.0 4.0 0.00 0.00 0.00 33 1004.3
20260830140004 65 146 1.0 4.0 0.00 0.00 0.00 34 1004.3
20260830134501 64 112 1.0 5.0 0.00 0.00 0.00 38 1004.0
20260830133100 65 110 1.0 3.0 0.00 0.00 0.00 38 1004.0
20260830131610 65 129 1.0 2.0 0.00 0.00 0.00 37 1003.7
20260830130053 64 110 0.0 3.0 0.00 0.00 0.00 42 1003.6
20260830124551 64 132 0.0 4.0 0.00 0.00 0.00 45 1003.4
20260830123050 63 182 1.0 5.0 0.00 0.00 0.00 46 1003.2
20260830121550 63 126 0.0 3.0 0.00 0.00 0.00 50 1003.3
20260830120045 62 116 0.0 2.0 0.00 0.00 0.00 53 1003.3
20260830114547 63 118 0.0 3.0 0.00 0.00 0.00 56 1003.0
20260830113041 63 136 0.0 4.0 0.00 0.00 0.00 58 1003.1
20260830111538 63 87 2.0 5.0 0.00 0.00 0.00 59 1003.6
20260830110033 63 110 3.0 8.0 0.00 0.00 0.00 57 1003.3
20260830104536 63 115 2.0 8.0 0.00 0.00 0.00 54 1003.2
20260830103030 63 108 3.0 7.0 0.00 0.00 0.00 53 1003.2
20260830101527 63 110 2.0 7.0 0.00 0.00 0.00 52 1002.9
20260830100024 63 100 1.0 5.0 0.00 0.00 0.00 52 1003.0
20260830094523 63 108 0.0 4.0 0.00 0.00 0.00 51 1002.8
20260830093020 64 107 0.0 5.0 0.00 0.00 0.00 50 1002.7
20260830091535 64 132 3.0 7.0 0.00 0.00 0.00 50 1002.7
20260830090014 64 147 1.0 6.0 0.00 0.00 0.00 50 1003.1
20260830084512 64 111 4.0 8.0 0.00 0.00 0.00 50 1003.0
20260830083008 64 98 1.0 9.0 0.00 0.00 0.00 49 1003.2
20260830081512 65 123 2.0 7.0 0.00 0.00 0.00 49 1002.9